User: anonymous   Login
Location: Unspecified
(0.0000°N, 0.0000°E)
Time: 17:21:56
(UTC+00:00)
Language:

EDUSAT - Orbit

View from above orbital plane
View from above orbital plane
View from above satellite
View from above satellite

Ground track
Ground track

The orbit data is extracted from the following two-line orbital elements,

1 37788U 11044A   18145.84616830  .00000076  00000-0  20932-4 0  9991
2 37788  98.2874 274.7000 0039475  82.8947  74.1764 14.70819649363256
Epoch (UTC): 25 May 2018 20:18:28
Eccentricity: 0.0039475
inclination: 98.2874°
perigee height: 630 km
apogee height: 686 km
right ascension of ascending node: 274.7000°
argument of perigee: 82.8947°
revolutions per day: 14.70819649
mean anomaly at epoch: 74.1764°
orbit number at epoch: 36325

The dashed part of the orbit path shows where the satellite is in the earth's shadow,  

DLR